Wind_Speed
19 19 19 19 19 19 19 20 20 20 20 19 19 19 19 18 18 18 18 18 18 18 18 19 19 19 19 20 20 21 21 22 22 23 24 24 26 27 28 28 29 30 32
19 19 19 19 19 19 19 20 20 20 19 19 19 19 19 19 18 17 17 18 18 18 19 19 19 19 20 20 21 22 22 22 23 23 24 25 26 27 28 30 30 30 32
19 19 19 19 19 19 20 20 20 19 18 19 19 19 19 19 19 18 18 18 18 19 19 20 20 20 20 20 21 22 23 24 24 25 26 27 27 28 29 30 31 31 32
19 19 19 19 19 19 19 19 19 18 18 19 20 20 20 20 20 19 18 19 19 20 20 20 20 20 21 21 22 22 23 24 25 26 27 27 28 29 30 30 31 32 32
19 19 19 19 19 19 19 19 19 18 18 18 19 20 20 20 20 19 19 19 20 20 20 21 21 21 22 23 24 24 25 25 26 26 26 27 28 29 29 30 31 31 32
20 20 20 20 20 19 19 19 19 19 19 19 19 19 19 19 19 19 19 19 20 20 21 21 22 22 23 23 24 25 25 25 26 26 26 27 27 28 29 29 29 30 30
20 20 20 20 20 20 20 20 20 20 20 19 19 19 19 19 19 19 20 20 20 20 21 22 22 23 24 24 25 26 26 26 26 26 26 27 27 27 27 27 27 28 28
19 19 19 20 20 20 20 20 20 20 19 19 19 19 19 19 19 19 19 20 21 22 22 22 23 24 25 25 26 26 25 25 25 26 27 27 27 27 27 27 27 28 29
20 20 20 20 21 20 20 20 20 20 19 19 19 19 19 19 19 19 20 21 21 22 23 23 23 24 24 25 25 25 25 25 26 26 26 27 26 26 26 26 27 27 28
21 20 21 21 21 21 20 19 20 20 19 20 19 19 19 19 19 19 20 21 22 22 22 22 23 23 24 25 24 25 25 25 25 26 26 25 25 25 25 25 25 25 25
21 22 22 22 22 21 20 20 19 19 19 19 19 19 19 19 19 20 21 21 22 23 22 22 23 23 24 24 24 24 25 24 25 25 25 24 24 24 24 24 24 24 23
21 21 22 22 22 21 21 20 20 20 19 19 19 19 19 19 20 21 21 22 22 23 23 23 23 24 24 25 25 25 25 24 25 25 24 23 22 22 22 22 22 21 21
21 21 22 22 21 21 21 20 20 20 19 19 19 19 19 20 20 21 21 21 22 22 22 22 22 23 24 25 25 25 25 24 24 23 23 22 22 22 21 21 21 21 21
21 21 21 21 21 21 21 21 20 20 19 19 19 19 19 19 20 20 20 20 21 21 21 22 22 22 23 23 23 23 23 23 23 22 22 21 21 21 21 21 20 20 20
21 21 21 21 21 20 20 20 19 19 19 19 19 18 18 18 19 20 20 21 21 21 21 22 23 23 22 22 22 22 22 22 22 21 21 21 20 20 19 19 19 19 19
21 21 21 20 20 19 19 19 17 17 17 18 18 18 18 18 19 20 21 22 22 22 22 22 23 23 23 23 22 22 21 21 21 20 21 20 20 19 19 17 17 18 17
20 20 20 19 19 19 19 17 17 17 17 17 17 17 18 18 19 20 21 22 22 22 22 22 22 22 22 22 22 22 21 21 20 20 20 20 19 19 18 18 17 17 17
19 19 19 19 18 18 18 17 17 18 17 17 17 17 18 18 19 21 21 21 21 21 22 22 22 21 21 21 21 21 21 21 20 19 19 20 19 19 19 19 18 18 18
18 18 18 18 18 18 18 17 17 17 17 16 16 16 16 17 18 20 21 20 20 21 21 21 21 20 20 20 20 20 20 19 19 19 19 19 19 19 19 19 19 18 18
18 17 17 17 17 17 17 17 16 16 16 15 15 15 16 18 19 20 20 20 21 21 21 21 20 20 20 20 19 18 19 19 20 19 19 19 19 19 19 19 19 19 19
18 17 17 17 17 17 17 16 16 16 16 15 16 16 17 18 19 20 20 20 21 21 21 21 21 21 20 19 19 18 19 19 19 20 20 20 21 20 20 19 19 19 19
18 17 17 16 17 17 16 16 16 16 16 16 16 17 18 18 19 20 20 20 21 22 22 22 22 21 21 20 19 18 18 18 19 20 21 21 20 20 20 20 20 20 20
18 18 17 16 16 16 16 16 16 16 16 17 17 18 19 19 20 20 20 21 21 22 22 22 22 22 21 20 20 19 20 20 20 20 20 20 20 20 20 20 20 20 20
18 18 18 17 16 16 17 17 17 17 18 18 18 19 20 21 21 21 21 21 22 22 22 22 22 22 21 20 20 20 21 21 21 20 20 20 20 20 19 19 19 19 18
18 18 18 18 17 17 17 17 17 17 18 18 19 19 20 21 21 21 21 22 22 22 22 22 22 21 21 21 21 21 21 21 21 21 21 20 20 19 19 18 17 17 16
19 19 19 19 18 18 17 18 18 18 18 19 19 20 20 20 20 20 20 21 22 22 22 22 22 22 22 22 22 22 21 20 21 21 21 21 19 18 17 17 16 15 15
Wind_Direction
307 306 306 309 310 311 311 311 310 310 309 309 308 305 304 302 299 300 300 299 298 297 294 295 295 293 293 292 291 290 288 283 280 279 279 276 273 270 267 265 264 260 257
306 305 304 306 309 309 311 311 309 309 307 306 307 307 304 305 303 301 299 296 296 295 298 299 298 297 296 294 292 292 290 287 285 284 282 280 278 273 270 267 266 263 260
308 305 304 304 306 307 309 308 307 307 307 305 304 304 305 305 305 302 300 298 295 296 298 299 299 297 296 294 293 292 290 288 287 287 284 283 281 278 274 272 268 265 262
311 309 307 306 308 308 309 308 307 306 305 307 305 305 306 307 306 302 297 296 296 295 296 297 298 298 296 295 294 294 292 289 288 286 284 281 280 279 276 274 272 269 266
311 310 310 310 310 310 310 310 309 307 305 306 307 308 308 307 305 303 299 296 296 297 297 297 298 299 297 295 293 293 292 291 290 289 287 282 280 279 277 275 273 271 269
309 310 309 310 310 309 309 310 309 307 306 307 307 307 309 307 305 305 302 299 299 298 297 297 299 299 299 299 297 296 295 293 292 291 289 287 284 282 279 277 273 270 268
307 309 310 310 310 309 307 308 308 308 309 308 308 307 308 307 306 305 303 301 299 300 299 298 299 300 300 299 299 298 297 296 295 294 291 289 287 283 281 279 276 272 268
307 309 310 311 312 311 309 309 308 307 308 307 305 303 304 304 305 304 303 304 301 300 300 300 299 299 299 299 298 298 298 297 296 295 293 291 289 287 283 279 276 274 271
305 306 307 310 312 311 311 310 309 307 306 305 303 303 303 303 303 303 303 305 304 303 303 302 301 301 301 301 301 300 299 298 297 296 295 295 292 290 287 283 279 276 273
303 305 307 308 310 310 309 309 308 306 305 305 305 305 304 303 303 304 305 305 306 306 306 305 304 305 305 305 303 302 301 299 298 297 297 296 294 292 288 285 283 281 276
303 306 308 309 310 310 309 308 308 308 307 307 306 306 307 308 308 308 307 307 308 308 307 306 305 306 306 306 305 305 304 301 300 299 298 297 295 292 290 286 284 282 278
304 305 307 308 310 312 311 310 310 310 309 308 308 309 310 311 310 309 309 309 309 309 308 307 304 305 306 306 305 305 305 304 301 300 301 299 297 295 291 288 287 282 279
303 306 309 309 310 310 311 311 310 309 307 306 308 310 312 312 311 311 311 312 311 311 310 309 308 309 308 308 307 305 305 305 304 302 300 299 297 296 293 289 286 282 279
301 305 309 311 311 310 311 312 310 310 309 309 311 312 313 314 313 313 313 313 312 310 308 308 310 312 311 312 311 308 307 306 305 304 302 300 299 298 295 291 288 285 280
298 302 306 308 309 310 311 312 313 314 314 314 314 317 317 317 316 316 316 314 313 313 312 312 311 310 309 309 309 310 309 308 307 304 303 302 301 300 298 295 291 286 281
295 298 302 306 309 310 311 313 314 315 316 317 317 318 318 319 319 320 320 319 318 316 315 314 313 311 309 309 309 310 311 310 309 307 307 306 304 303 302 299 294 290 283
293 296 300 303 304 306 309 310 312 313 314 316 317 319 320 320 320 322 322 321 320 320 320 319 317 315 314 312 310 310 312 311 309 306 307 307 306 304 303 301 297 294 290
293 295 298 299 301 305 308 310 312 314 315 316 317 319 321 321 323 324 325 323 324 325 324 323 322 321 320 318 315 313 314 313 310 307 306 306 306 303 301 300 298 295 292
291 291 294 296 299 303 306 309 311 314 317 319 320 322 324 326 326 328 329 327 327 328 327 327 327 325 322 320 319 317 316 315 311 308 307 307 306 304 300 298 297 295 292
290 289 291 294 297 301 303 306 309 312 315 319 321 324 326 327 329 330 330 329 329 329 329 329 329 327 325 324 322 321 319 317 315 311 309 308 306 305 301 298 297 296 293
288 289 290 291 294 297 300 302 305 308 311 314 317 320 324 326 328 330 330 330 330 330 331 331 330 328 326 325 323 320 319 319 317 315 312 310 307 303 300 298 296 295 294
286 289 290 290 292 294 297 299 303 306 309 311 313 316 319 323 326 328 329 330 329 329 330 329 329 329 328 326 324 322 320 319 318 318 316 313 308 305 301 299 297 296 295
284 287 289 288 290 292 294 297 300 304 307 309 312 314 316 318 321 323 325 326 328 328 329 330 329 328 327 326 326 324 323 324 322 320 319 317 313 310 306 302 300 298 296
281 284 287 287 287 290 293 296 299 301 304 306 309 311 314 315 317 319 320 322 324 325 326 327 329 329 328 327 326 325 323 323 323 322 320 319 317 314 311 307 304 301 297
279 281 283 285 285 287 292 296 299 301 302 303 306 309 313 314 317 319 320 320 321 323 324 326 327 328 328 328 327 326 325 324 323 322 322 321 320 318 316 313 309 304 300
277 279 281 282 282 285 288 291 294 299 302 304 307 310 313 314 316 318 318 320 321 322 323 325 325 326 327 327 327 326 325 324 324 324 325 324 323 321 321 320 317 313 309
Height
5797 5795 5792 5790 5787 5785 5783 5781 5778 5776 5774 5772 5771 5769 5768 5767 5765 5764 5762 5761 5760 5758 5757 5755 5753 5752 5751 5749 5748 5747 5746 5745 5744 5744 5743 5743 5743 5743 5743 5744 5744 5745 5747
5793 5790 5788 5786 5783 5781 5779 5776 5774 5772 5770 5769 5767 5765 5764 5762 5761 5759 5758 5756 5755 5754 5752 5750 5749 5747 5746 5744 5743 5742 5740 5739 5738 5738 5737 5736 5735 5735 5735 5735 5736 5736 5738
5789 5786 5784 5781 5779 5777 5774 5772 5770 5768 5767 5765 5763 5761 5760 5758 5756 5755 5753 5751 5750 5749 5747 5745 5744 5743 5741 5739 5738 5736 5735 5734 5732 5731 5730 5729 5728 5727 5727 5726 5727 5727 5728
5785 5782 5780 5778 5775 5773 5771 5768 5766 5764 5763 5761 5759 5757 5755 5753 5751 5750 5748 5747 5745 5744 5742 5741 5739 5737 5736 5734 5733 5731 5729 5727 5726 5724 5723 5721 5720 5719 5718 5718 5717 5717 5718
5782 5779 5776 5774 5772 5769 5767 5764 5762 5760 5758 5756 5755 5753 5750 5748 5746 5745 5743 5742 5741 5739 5737 5736 5734 5732 5730 5728 5727 5725 5722 5720 5718 5717 5715 5713 5712 5710 5709 5709 5708 5708 5708
5777 5775 5773 5770 5767 5765 5763 5760 5758 5756 5754 5752 5750 5748 5746 5744 5742 5740 5739 5737 5736 5734 5732 5730 5728 5727 5724 5722 5720 5718 5716 5714 5711 5709 5707 5705 5703 5702 5700 5699 5699 5699 5700
5773 5771 5768 5766 5763 5761 5758 5756 5754 5751 5749 5747 5745 5743 5742 5739 5737 5736 5734 5732 5730 5729 5727 5725 5723 5721 5719 5716 5714 5711 5709 5706 5704 5702 5700 5697 5695 5693 5692 5691 5689 5689 5690
5769 5767 5764 5762 5759 5756 5754 5751 5749 5747 5745 5743 5741 5739 5737 5735 5733 5731 5729 5727 5725 5723 5721 5719 5717 5715 5713 5710 5708 5705 5702 5699 5697 5694 5692 5689 5687 5685 5683 5682 5681 5680 5680
5765 5763 5761 5758 5755 5752 5749 5747 5745 5742 5740 5738 5736 5734 5732 5730 5728 5726 5724 5722 5720 5718 5716 5713 5711 5709 5706 5704 5701 5698 5695 5692 5689 5687 5684 5682 5679 5677 5675 5673 5672 5671 5671
5761 5758 5756 5753 5751 5748 5745 5743 5740 5738 5736 5734 5731 5729 5727 5725 5723 5721 5719 5717 5715 5713 5711 5708 5705 5703 5700 5697 5694 5692 5689 5686 5683 5680 5677 5674 5672 5669 5667 5665 5664 5663 5663
5756 5753 5751 5748 5746 5743 5741 5738 5736 5734 5731 5729 5727 5724 5722 5720 5718 5716 5714 5712 5709 5707 5705 5702 5699 5696 5694 5691 5688 5685 5682 5678 5676 5673 5670 5667 5665 5662 5660 5658 5657 5656 5656
5751 5749 5746 5744 5741 5738 5736 5734 5731 5729 5726 5724 5722 5720 5718 5715 5713 5710 5708 5706 5703 5701 5698 5696 5693 5690 5688 5684 5681 5678 5675 5672 5669 5666 5663 5661 5658 5656 5654 5652 5650 5649 5649
5746 5744 5741 5738 5736 5734 5732 5729 5727 5724 5722 5720 5718 5715 5713 5711 5708 5705 5703 5700 5698 5695 5693 5690 5687 5684 5681 5678 5675 5671 5668 5665 5662 5659 5657 5655 5652 5650 5648 5646 5644 5643 5642
5742 5739 5736 5734 5731 5729 5727 5724 5722 5720 5717 5715 5713 5710 5708 5706 5703 5701 5698 5695 5693 5690 5687 5685 5681 5678 5675 5672 5669 5665 5662 5659 5656 5653 5651 5649 5646 5644 5642 5640 5638 5637 5636
5736 5734 5732 5730 5727 5725 5723 5720 5717 5715 5713 5711 5708 5706 5703 5701 5699 5696 5693 5691 5688 5685 5682 5679 5676 5673 5669 5666 5663 5660 5657 5653 5650 5647 5645 5643 5640 5638 5636 5634 5632 5631 5630
5731 5729 5727 5725 5723 5721 5719 5716 5714 5711 5709 5707 5704 5702 5699 5697 5694 5691 5688 5685 5682 5679 5676 5673 5670 5666 5663 5660 5657 5654 5651 5648 5645 5642 5640 5637 5635 5633 5631 5628 5626 5625 5624
5725 5724 5722 5720 5718 5716 5715 5713 5711 5708 5706 5703 5701 5698 5695 5693 5690 5687 5683 5680 5677 5674 5670 5667 5663 5660 5656 5653 5650 5648 5645 5643 5640 5637 5635 5632 5630 5628 5625 5623 5621 5620 5618
5720 5718 5717 5715 5714 5712 5710 5708 5706 5704 5702 5699 5697 5694 5692 5689 5686 5682 5679 5676 5672 5669 5665 5662 5658 5654 5651 5648 5645 5642 5640 5637 5635 5632 5630 5628 5625 5623 5620 5618 5616 5614 5612
5714 5713 5712 5710 5709 5707 5706 5704 5702 5700 5697 5695 5693 5690 5688 5685 5682 5679 5675 5672 5668 5665 5661 5657 5653 5650 5646 5643 5640 5638 5635 5632 5629 5627 5625 5622 5620 5617 5615 5613 5611 5609 5607
5709 5708 5706 5705 5704 5703 5701 5700 5698 5696 5693 5691 5689 5687 5684 5681 5678 5675 5672 5668 5664 5661 5657 5653 5650 5646 5643 5639 5636 5633 5630 5628 5625 5622 5620 5617 5615 5612 5610 5607 5605 5603 5601
5704 5702 5701 5700 5699 5698 5697 5695 5693 5692 5690 5688 5686 5683 5681 5678 5675 5671 5668 5665 5661 5658 5654 5650 5646 5642 5639 5635 5632 5629 5626 5623 5620 5617 5615 5612 5609 5606 5604 5602 5600 5597 5595
5698 5697 5696 5695 5694 5693 5692 5691 5689 5688 5686 5684 5682 5679 5677 5674 5671 5668 5664 5661 5657 5654 5650 5646 5642 5638 5635 5631 5628 5625 5622 5619 5615 5613 5609 5606 5603 5601 5598 5596 5594 5591 5589
5693 5692 5691 5691 5690 5689 5688 5686 5685 5683 5681 5679 5677 5675 5673 5670 5667 5664 5661 5657 5654 5650 5646 5642 5638 5635 5631 5627 5624 5621 5617 5614 5611 5608 5604 5601 5598 5595 5592 5590 5587 5585 5583
5687 5687 5686 5686 5685 5684 5683 5682 5680 5679 5677 5675 5673 5670 5668 5665 5662 5660 5657 5653 5650 5646 5643 5639 5635 5631 5627 5623 5620 5616 5613 5609 5606 5603 5599 5595 5592 5589 5587 5584 5581 5579 5577
5682 5682 5681 5681 5680 5679 5678 5677 5675 5674 5672 5670 5668 5666 5663 5660 5658 5655 5652 5649 5646 5642 5638 5635 5631 5627 5623 5620 5616 5612 5608 5605 5601 5597 5594 5590 5587 5584 5581 5579 5576 5573 5571
5676 5676 5676 5675 5675 5674 5673 5672 5671 5669 5667 5665 5663 5661 5658 5656 5653 5650 5647 5644 5641 5637 5634 5630 5627 5623 5619 5616 5612 5608 5604 5600 5597 5593 5589 5586 5582 5580 5577 5574 5571 5569 5567